Location: Amsterdam
(30.7274°N, 84.4357°W)
Time: 07:37:26
(UTC+00:00)

BlueWalker 3 - Pass Details

Date: 17 January 2026
Orbit: 450 x 461 km, 53.2° (Epoch: 11 February)

Event Time Altitude Azimuth Distance (km) Brightness Sun altitude
Rises 00:51:41 0° 216° (SW) 2,440 6.1 -23.7°
Reaches altitude 10° 00:53:48 10° 213° (SSW) 1,570 5.0 -24.2°
Enters shadow 00:55:43 30° 206° (SSW) 837 3.3 -24.6°
